Home > Weather > Volda > Past weeks

Flag for Norway Weather for the Past 2 Weeks in Volda, Norway

Now
50 °F

Passing clouds.


Feels Like: 46 °F
Forecast: 45 / 53 °F
Wind: 12 mph from South

Location: Alesund / Vigra

Current Time: May 2, 2016 at 6:44:56 AM

Latest Report: May 2, 2016 at 5:20 AM


Visibility: N/A

Pressure: 29.89 "Hg

Humidity: 54%

Dew Point: 34 °F

Location of VoldaLocation

Historic Weather in Volda — Graph

°F

Volda Temperature Yesterday

Maximum temperature yesterday: 54 °F (at 11:50 AM)
Minimum temperature yesterday: 41 °F (at 12:50 AM)
Average temperature yesterday: 48 °F

High & Low Weather Summary for the Past Weeks

 TemperatureHumidityPressure
High55 °F (Apr 30, 2:50 PM)100% (Apr 22, 10:50 PM)30.30 "Hg (Apr 22, 10:50 PM)
Low25 °F (Apr 24, 3:20 AM)28% (Apr 30, 2:50 PM)29.27 "Hg (Apr 18, 10:50 AM)
Average42 °F73%29.85 "Hg
* Reported Apr 17 5:20 AM — May 2 5:20 AM, Volda, Weather by CustomWeather, © 2016

Note: Actual official high and low records may vary slightly from our data, if they occured in-between our weather recording intervals... More about our weather records

Advertising

Volda Weather History for the Previous 24 Hours

Scroll right to see more
 ConditionsComfort  
Time TempWeatherWind HumidityBarometerVisibility
5:20 AM
Mon, May 2
50 °FPassing clouds.12 mph54%29.89 "HgN/A
4:50 AM50 °FPassing clouds.8 mph54%29.92 "HgN/A
4:20 AM50 °FOvercast.6 mph54%29.92 "HgN/A
3:50 AM50 °FOvercast.8 mph50%29.92 "HgN/A
2:50 AM48 °FPassing clouds.6 mph58%29.95 "HgN/A
2:20 AM48 °FPassing clouds.9 mph58%29.95 "HgN/A
1:50 AM48 °FPassing clouds.12 mph58%29.98 "HgN/A
12:50 AM48 °FMostly cloudy.13 mph62%29.98 "HgN/A
12:20 AM48 °FMostly cloudy.9 mph62%30.01 "HgN/A
11:50 PM
Sun, May 1
48 °FPassing clouds.10 mph58%30.01 "HgN/A
11:20 PM48 °FOvercast.12 mph58%30.01 "HgN/A
10:20 PM48 °FPartly sunny.12 mph58%30.01 "HgN/A
9:50 PM48 °FPartly sunny.15 mph58%30.01 "HgN/A
9:20 PM48 °FPartly sunny.14 mph54%30.04 "HgN/A
8:50 PM48 °FPartly sunny.13 mph58%30.04 "HgN/A
8:20 PM48 °FPartly sunny.15 mph54%30.04 "HgN/A
7:50 PM46 °FBroken clouds.16 mph57%30.04 "HgN/A
7:20 PM48 °FBroken clouds.16 mph50%30.04 "HgN/A
6:50 PM48 °FBroken clouds.16 mph50%30.07 "HgN/A
6:20 PM48 °FBroken clouds.14 mph50%30.07 "HgN/A
5:50 PM50 °FPartly sunny.13 mph43%30.07 "HgN/A
5:20 PM50 °FPartly sunny.14 mph47%30.07 "HgN/A
4:50 PM52 °FScattered clouds.12 mph44%30.07 "HgN/A
4:20 PM52 °FPartly sunny.12 mph44%30.07 "HgN/A
3:50 PM52 °FPartly sunny.15 mph41%30.07 "HgN/A
3:20 PM52 °FPartly sunny.14 mph47%30.07 "HgN/A
2:50 PM52 °FPassing clouds.10 mph50%30.07 "HgN/A
2:20 PM52 °FScattered clouds.13 mph47%30.07 "HgN/A
1:50 PM52 °FScattered clouds.10 mph47%30.07 "HgN/A
1:20 PM52 °FScattered clouds.13 mph47%30.09 "HgN/A
12:50 PM52 °FPassing clouds.10 mph47%30.09 "HgN/A
12:20 PM54 °FPassing clouds.12 mph44%30.09 "HgN/A
11:50 AM54 °FPassing clouds.12 mph44%30.09 "HgN/A
11:20 AM52 °FPassing clouds.12 mph44%30.09 "HgN/A
10:50 AM52 °FPassing clouds.5 mph41%30.09 "HgN/A
10:20 AM50 °FPassing clouds.9 mph50%30.09 "HgN/A
9:50 AM50 °FPassing clouds.6 mph58%30.09 "HgN/A
9:20 AM48 °FPassing clouds.7 mph62%30.09 "HgN/A
8:50 AM50 °FSunny.2 mph50%30.09 "Hg10 mi
8:20 AM50 °FSunny.5 mph54%30.09 "Hg10 mi
7:20 AM46 °FSunny.6 mph66%30.09 "Hg10 mi
6:20 AM46 °FPassing clouds.6 mph57%30.09 "HgN/A
Weather by CustomWeather, © 2016

See weather overviewHow to use our weather pages